Alexandria, LA

5:46 PM CST on December 04, 2016 (GMT -0600)
Alexandria International

Weather History for KAEX - September, 2012

Change the Weather History Date:

Saturday, September 1, 2012

  Actual Average Record
Temperature  
Mean Temperature 83 °F 81 °F  
Max Temperature 90 °F 92 °F 109 °F (2000)
Min Temperature 75 °F 70 °F 57 °F (1915)
Degree Days  
Heating Degree Days 0 0  
Month to date heating degree days 0 0  
Since 1 July heating degree days 0 0  
Cooling Degree Days 18 16  
Month to date cooling degree days 18 16  
Year to date cooling degree days 2308 2003  
Growing Degree Days 32 (Base 50)    
Moisture  
Dew Point 75 °F    
Average Humidity 82    
Maximum Humidity 100    
Minimum Humidity 64    
Precipitation  
Precipitation T in 0.07 in 4.99 in (2008)
Month to date precipitation T 0.07  
Year to date precipitation 43.54 36.30  
Sea Level Pressure  
Sea Level Pressure 30.06 in    
Wind  
Wind Speed 6 mph (South)    
Max Wind Speed 21 mph    
Max Gust Speed 26 mph    
Visibility 9 miles    
Events Rain    
T = Trace of Precipitation, MM = Missing Value Source: NWS Daily Summary

Daily Weather History Graph

Daily Weather History Graph

Search for Another Location

Airport or City:

Trip Planner

Search our weather history database for the weather conditions in past years. The results will help you decide how hot, cold, wet, or windy it might be!

Date:

Astronomy

Sep. 01, 2012 Rise Set
Actual Time 6:46 AM CDT 7:33 PM CDT
Civil Twilight 6:21 AM CDT 7:57 PM CDT
Nautical Twilight 5:52 AM CDT 8:26 PM CDT
Astronomical Twilight 5:22 AM CDT 8:56 PM CDT
Moon 8:00 PM CDT (9/1) 7:46 AM CDT (9/1)
Length of Visible Light 13h 36m
Length of Day
12h 46m
Full, 99% of the Moon is Illuminated
Sep 1
Full
Sep 8
Last Quarter
Sep 15
New
Sep 22
First Quarter
Sep 29
Full

Hourly Weather History & Observations

Time (CDT) Temp. Heat Index Dew Point Humidity Pressure Visibility Wind Dir Wind Speed Gust Speed Precip Events Conditions
12:53 AM 78.1 °F - 75.9 °F 93% 30.04 in 10.0 mi SSE 8.1 mph - N/A   Clear
1:53 AM 77.0 °F - 75.0 °F 94% 30.04 in 9.0 mi SSE 5.8 mph - N/A   Clear
2:53 AM 77.0 °F - 75.9 °F 96% 30.04 in 9.0 mi South 4.6 mph - N/A   Mostly Cloudy
3:48 AM 78.8 °F - 75.2 °F 89% 30.03 in 10.0 mi South 5.8 mph - N/A   Scattered Clouds
3:49 AM 78.1 °F - 75.9 °F 93% 30.04 in 10.0 mi South 5.8 mph - N/A   Scattered Clouds
4:06 AM 78.8 °F - 75.2 °F 89% 30.03 in 10.0 mi SSE 4.6 mph - N/A   Mostly Cloudy
4:36 AM 77.0 °F - 75.2 °F 94% 30.04 in 9.0 mi SSE 3.5 mph - N/A   Mostly Cloudy
4:53 AM 77.0 °F - 75.9 °F 96% 30.04 in 8.0 mi SSE 4.6 mph - N/A   Overcast
5:53 AM 78.1 °F - 75.9 °F 93% 30.05 in 9.0 mi SSE 4.6 mph - N/A   Overcast
6:53 AM 78.1 °F - 75.9 °F 93% 30.08 in 9.0 mi SSE 4.6 mph - N/A   Mostly Cloudy
7:10 AM 78.8 °F - 75.2 °F 89% 30.08 in 8.0 mi SSE 4.6 mph - N/A   Scattered Clouds
7:41 AM 78.8 °F - 75.2 °F 89% 30.08 in 7.0 mi SE 3.5 mph - N/A   Scattered Clouds
7:53 AM 78.1 °F - 75.9 °F 93% 30.09 in 8.0 mi Calm Calm - N/A   Partly Cloudy
8:53 AM 81.0 °F 87.3 °F 75.9 °F 85% 30.10 in 10.0 mi South 8.1 mph - N/A   Partly Cloudy
9:15 AM 82.4 °F 89.5 °F 75.2 °F 79% 30.09 in 10.0 mi South 6.9 mph - N/A   Mostly Cloudy
9:25 AM 82.4 °F 89.5 °F 75.2 °F 79% 30.10 in 10.0 mi South 6.9 mph - N/A   Mostly Cloudy
9:53 AM 82.9 °F 90.8 °F 75.9 °F 79% 30.11 in 10.0 mi South 6.9 mph - N/A   Mostly Cloudy
10:24 AM 84.2 °F 94.1 °F 77.0 °F 79% 30.10 in 10.0 mi SSW 6.9 mph - N/A   Mostly Cloudy
10:53 AM 86.0 °F 95.1 °F 75.0 °F 70% 30.11 in 10.0 mi SSW 9.2 mph - N/A   Mostly Cloudy
11:53 AM 88.0 °F 98.5 °F 75.9 °F 67% 30.10 in 10.0 mi South 9.2 mph - N/A   Partly Cloudy
12:53 PM 90.0 °F 100.2 °F 75.0 °F 61% 30.07 in 10.0 mi SSW 6.9 mph - N/A   Partly Cloudy
1:53 PM 82.9 °F 90.8 °F 75.9 °F 79% 30.06 in 10.0 mi South 5.8 mph - 0.00 in   Partly Cloudy
2:53 PM 82.9 °F 89.4 °F 73.9 °F 74% 30.05 in 10.0 mi SSW 8.1 mph - 0.00 in   Clear
3:53 PM 84.9 °F 94.1 °F 75.9 °F 74% 30.04 in 10.0 mi South 6.9 mph - N/A   Partly Cloudy
4:53 PM 79.0 °F - 73.9 °F 84% 30.04 in 10.0 mi South 6.9 mph - 0.00 in Rain Light Rain
5:53 PM 82.0 °F 87.9 °F 73.9 °F 76% 30.04 in 10.0 mi South 9.2 mph - 0.00 in   Partly Cloudy
6:53 PM 80.1 °F 85.1 °F 75.0 °F 85% 30.04 in 10.0 mi South 5.8 mph - N/A   Clear
7:53 PM 78.1 °F - 75.0 °F 90% 30.02 in 10.0 mi South 4.6 mph - N/A   Clear
8:53 PM 77.0 °F - 75.0 °F 94% 30.04 in 10.0 mi SSE 3.5 mph - N/A   Clear
9:53 PM 75.9 °F - 73.9 °F 94% 30.05 in 8.0 mi SSE 4.6 mph - N/A   Clear
10:53 PM 75.9 °F - 75.0 °F 97% 30.05 in 7.0 mi SSE 4.6 mph - N/A   Partly Cloudy
11:53 PM 75.9 °F - 75.0 °F 97% 30.04 in 7.0 mi South 3.5 mph - N/A   Clear